Change the Weather History Date:

Monday, December 10, 2012

  Actual Average Record
Temperature  
Mean Temperature 50 °F -  
Max Temperature 63 °F 58 °F 66 °F (2004)
Min Temperature 36 °F 40 °F 35 °F (2013)
Degree Days  
Heating Degree Days 16    
Moisture  
Dew Point 43 °F    
Average Humidity 83    
Maximum Humidity 100    
Minimum Humidity 43    
Precipitation  
Precipitation 0.00 in 0.05 in - ()
Sea Level Pressure  
Sea Level Pressure 30.11 in    
Wind  
Wind Speed 2 mph ()    
Max Wind Speed 13 mph    
Max Gust Speed -    
Visibility 6.9 miles    
Events      
Averages and records for this station are not official NWS values.
T = Trace of Precipitation, MM = Missing Value Source: Averaged Metar Reports

Daily Weather History Graph

Daily Weather History Graph

Search for Another Location

Airport or City:

Trip Planner

Search our weather history database for the weather conditions in past years. The results will help you decide how hot, cold, wet, or windy it might be!

Date:

Astronomy

Dec. 10, 2012 Rise Set
Actual Time 7:58 AM CET 5:25 PM CET
Civil Twilight 7:28 AM CET 5:55 PM CET
Nautical Twilight 6:54 AM CET 6:28 PM CET
Astronomical Twilight 6:22 AM CET 7:01 PM CET
Moon 4:24 AM CET (12/10) 3:02 PM CET (12/10)
Length of Visible Light 10h 26m
Length of Day
9h 26m
Waning Crescent, 12% of the Moon is Illuminated
Dec 10
Waning Crescent
Dec 13
New
Dec 20
First Quarter
Dec 28
Full
Jan 5
Last Quarter

Hourly Weather History & Observations

Time (CET) Temp. Windchill Dew Point Humidity Pressure Visibility Wind Dir Wind Speed Gust Speed Precip Events Conditions
12:00 AM 37.4 °F - 37.4 °F 100% 30.21 in 6.2 mi NE 2.3 mph - N/A   Partly Cloudy
12:30 AM 37.4 °F - 35.6 °F 93% 30.21 in 6.2 mi Calm Calm - N/A   Partly Cloudy
1:00 AM 36 °F - 35 °F 94% 30.22 in 12 mi ENE 1.2 mph - -   Scattered Clouds
1:00 AM 37.4 °F - 35.6 °F 93% 30.21 in 6.2 mi Calm Calm - N/A   Partly Cloudy
1:30 AM 39.2 °F - 37.4 °F 93% 30.18 in 6.2 mi Calm Calm - N/A   Partly Cloudy
2:00 AM 39.2 °F - 39.2 °F 100% 30.18 in 6.2 mi Calm Calm - N/A   Partly Cloudy
2:30 AM 41.0 °F - 39.2 °F 93% 30.18 in 6.2 mi Calm Calm - N/A   Partly Cloudy
3:00 AM 41.0 °F - 39.2 °F 93% 30.18 in 6.2 mi NE 1.2 mph - N/A   Scattered Clouds
3:30 AM 41.0 °F - 39.2 °F 93% 30.15 in 6.2 mi Variable 1.2 mph - N/A   Partly Cloudy
4:00 AM 42.8 °F - 41.0 °F 93% 30.15 in 6.2 mi Variable 1.2 mph - N/A   Partly Cloudy
4:30 AM 42.8 °F - 41.0 °F 93% 30.15 in 6.2 mi Calm Calm - N/A   Partly Cloudy
5:00 AM 42.8 °F - 41.0 °F 93% 30.12 in 6.2 mi Calm Calm - N/A   Partly Cloudy
5:30 AM 42.8 °F - 41.0 °F 93% 30.12 in 6.2 mi Calm Calm - N/A   Partly Cloudy
6:00 AM 44.6 °F - 42.8 °F 93% 30.12 in 6.2 mi NNE 1.2 mph - N/A   Partly Cloudy
6:30 AM 42.8 °F - 41.0 °F 93% 30.12 in 6.2 mi Calm Calm - N/A   Partly Cloudy
7:00 AM 39 °F - 38 °F 94% 30.13 in 12 mi Calm Calm - -   Scattered Clouds
7:00 AM 41.0 °F - 39.2 °F 93% 30.12 in 6.2 mi NE 2.3 mph - N/A   Partly Cloudy
7:30 AM 39.2 °F - 39.2 °F 100% 30.12 in 6.2 mi Calm Calm - N/A   Partly Cloudy
8:00 AM 41.0 °F - 39.2 °F 93% 30.09 in 6.2 mi Calm Calm - N/A   Partly Cloudy
8:30 AM 41.0 °F - 39.2 °F 93% 30.12 in 6.2 mi Variable 2.3 mph - N/A   Partly Cloudy
9:00 AM 42.8 °F - 41.0 °F 93% 30.12 in 6.2 mi Calm Calm - N/A   Partly Cloudy
9:30 AM 44.6 °F - 44.6 °F 100% 30.12 in 6.2 mi Calm Calm - N/A   Partly Cloudy
10:00 AM 48.2 °F - 46.4 °F 93% 30.12 in 6.2 mi Calm Calm - N/A   Partly Cloudy
10:30 AM 53.6 °F - 48.2 °F 82% 30.12 in 6.2 mi Calm Calm - N/A   Partly Cloudy
11:00 AM 55.4 °F - 50.0 °F 82% 30.12 in 6.2 mi Calm Calm - N/A   Partly Cloudy
11:30 AM 59.0 °F - 48.2 °F 67% 30.09 in 6.2 mi WSW 4.6 mph - N/A   Partly Cloudy
12:00 PM 59.0 °F - 48.2 °F 67% 30.09 in 6.2 mi WSW 11.5 mph - N/A   Partly Cloudy
12:30 PM 59.0 °F - 48.2 °F 67% 30.06 in 6.2 mi WSW 10.4 mph - N/A   Partly Cloudy
1:00 PM 62 °F - 45 °F 43% 30.08 in 19 mi WSW 12.7 mph - -   Scattered Clouds
1:00 PM 60.8 °F - 48.2 °F 63% 30.06 in 6.2 mi WSW 11.5 mph - N/A   Partly Cloudy
1:30 PM 60.8 °F - 48.2 °F 63% 30.04 in 6.2 mi WSW 10.4 mph - N/A   Partly Cloudy
2:00 PM 60.8 °F - 46.4 °F 59% 30.04 in 6.2 mi WSW 9.2 mph - N/A   Partly Cloudy
2:30 PM 60.8 °F - 46.4 °F 59% 30.04 in 6.2 mi NW 5.8 mph - N/A   Partly Cloudy
3:00 PM 60.8 °F - 44.6 °F 55% 30.04 in 6.2 mi NNW 5.8 mph - N/A   Partly Cloudy
3:30 PM 60.8 °F - 46.4 °F 59% 30.04 in 6.2 mi NW 5.8 mph - N/A   Partly Cloudy
4:00 PM 59.0 °F - 46.4 °F 63% 30.04 in 6.2 mi NNW 5.8 mph - N/A   Partly Cloudy
4:30 PM 57.2 °F - 46.4 °F 67% 30.04 in 6.2 mi NW 4.6 mph - N/A   Partly Cloudy
5:00 PM 55.4 °F - 46.4 °F 72% 30.04 in 6.2 mi WNW 3.5 mph - N/A   Partly Cloudy
5:30 PM 53.6 °F - 44.6 °F 72% 30.04 in 6.2 mi NNW 4.6 mph - N/A   Partly Cloudy
6:00 PM 51.8 °F - 44.6 °F 76% 30.04 in 6.2 mi NNW 4.6 mph - N/A   Partly Cloudy
6:30 PM 50.0 °F - 44.6 °F 82% 30.06 in 6.2 mi NE 3.5 mph - N/A   Partly Cloudy
7:00 PM 47 °F - 41 °F 72% 30.07 in 17 mi East 2.3 mph - -   Scattered Clouds
7:00 PM 48.2 °F - 42.8 °F 82% 30.06 in 6.2 mi East 2.3 mph - N/A   Partly Cloudy
7:30 PM 46.4 °F - 42.8 °F 87% 30.06 in 6.2 mi Variable 2.3 mph - N/A   Partly Cloudy
8:00 PM 46.4 °F 43.5 °F 42.8 °F 87% 30.06 in 6.2 mi NNW 5.8 mph - N/A   Partly Cloudy
8:30 PM 48.2 °F - 44.6 °F 87% 30.09 in 6.2 mi North 4.6 mph - N/A   Partly Cloudy
9:00 PM 46.4 °F 42.9 °F 42.8 °F 87% 30.09 in 6.2 mi NNE 6.9 mph - N/A   Partly Cloudy
9:30 PM 46.4 °F 42.4 °F 42.8 °F 87% 30.09 in 6.2 mi ENE 8.1 mph - N/A   Partly Cloudy
10:00 PM 44.6 °F - 42.8 °F 93% 30.09 in 6.2 mi NE 2.3 mph - N/A   Partly Cloudy
10:30 PM 46.4 °F - 42.8 °F 87% 30.12 in 6.2 mi ENE 2.3 mph - N/A   Partly Cloudy
11:00 PM 44.6 °F - 42.8 °F 93% 30.12 in 6.2 mi Variable 1.2 mph - N/A   Partly Cloudy
11:30 PM 42.8 °F - 41.0 °F 93% 30.12 in 6.2 mi Variable 2.3 mph - N/A   Partly Cloudy